Regional Weather Roundup
Issued by NWS

Home | Current Version | Previous Version | Graphics & Text | Print | Product List | Glossary Off
Versions: 1 2 3 4 5 6 7 8 9 10 11 12 13 14 15 16 17 18 19 20 21 22 23 24 25 26 27 28 29 30 31 32 33 34 35 36 37 38 39 40 41 42 43 44 45 46 47 48 49 50

000
ASUS43 KMKX 291500
RWRWI

WISCONSIN REGIONAL WEATHER ROUNDUP
NATIONAL WEATHER SERVICE MILWAUKEE/SULLIVAN WI
1000 AM CDT MON AUG 29 2016

NOTE: "FAIR" INDICATES FEW OR NO CLOUDS BELOW 12,000 FEET WITH NO
SIGNIFICANT WEATHER AND/OR OBSTRUCTIONS TO VISIBILITY.

WIZ001-002-006>008-014>016-023>028-291600-
NORTHWEST WISCONSIN

CITY           SKY/WX    TMP DP  RH WIND       PRES   REMARKS
SUPERIOR ARPT  PTSUNNY   67  65  91 NW6       30.13R
ASHLAND        PTSUNNY   70  63  78 N3        30.15R
HAYWARD        CLOUDY    67  63  87 S10       30.14F
SIREN          LGT RAIN  66  64  92 S7        30.21F
CUMBERLAND       N/A     70  63  78 CALM      30.25F
RICE LAKE      CLOUDY    73  64  73 SE5       30.26F
CHETEK         NOT AVBL
LADYSMITH      CLOUDY    69  66  89 SE5       30.27F
EAU CLAIRE     NOT AVBL
MENOMONIE      MOSUNNY   72  72  99 CALM      30.25F
NEW RICHMOND   MOSUNNY   74  66  75 E7        30.26S
OSCEOLA        PTSUNNY   73  70  90 CALM      30.28R
$$

WIZ003>005-009-010-017-018-291600-
NORTH CENTRAL WISCONSIN

CITY           SKY/WX    TMP DP  RH WIND       PRES   REMARKS
MANITOWISH WTR NOT AVBL
ARBOR VITAE    PTSUNNY   67  64  91 S7        30.25R
WOODRUFF       PTSUNNY   67  64  91 S7        30.25R
RHINELANDER    PTSUNNY   70  66  87 S6        30.26F
EAGLE RIVER    CLOUDY    66  66 100 S3        30.25F
LAND O LAKES   CLOUDY    67  66  99 S7        30.24F
PHILLIPS       MOSUNNY   67  66  94 S7        30.25F
TOMAHAWK       CLOUDY    66  64  93 CALM      30.27F
MEDFORD        MOSUNNY   71  71  98 N5        30.27S
MERRILL        PTSUNNY   70  68  93 S5        30.27F
$$

WIZ029-030-035-036-043>047-291600-
CENTRAL WISCONSIN

CITY           SKY/WX    TMP DP  RH WIND       PRES   REMARKS
WAUSAU         CLOUDY    68  66  93 NW5       30.28R
MOSINEE        CLOUDY    70  70 100 S5        30.28S FOG
MARSHFIELD     CLOUDY    74  68  81 SW7       30.26F
STEVENS POINT  CLOUDY    69  67  92 SW3       30.28R
WAUPACA        MOSUNNY   75  68  77 S3        30.27R
WAUTOMA        MOSUNNY   75  68  78 SW8       30.27R
WISC RAPIDS    CLOUDY    75  69  81 S6        30.28S
CAMP DOUGLAS   PTSUNNY   68  68 100 CALM      30.27R
$$

WIZ011>013-019>022-031-037>040-048>050-291600-
NORTHEAST WISCONSIN

CITY           SKY/WX    TMP DP  RH WIND       PRES   REMARKS
ANTIGO         CLOUDY    67  66  99 CALM      30.29S FOG
SHAWANO        PTSUNNY   74  66  75 SW3       30.27S
OCONTO         NOT AVBL
STURGEON BAY   MOSUNNY   73  67  81 S6        30.28R
GREEN BAY      MOSUNNY   74  68  81 CALM      30.27R
MANITOWOC      NOT AVBL
APPLETON       PTSUNNY   75  64  69 VRB3      30.25S
CLINTONVILLE   MOSUNNY   72  64  78 SW5       30.27R
OSHKOSH        SUNNY     75  67  76 S3        30.26R
$$

WIZ032>034-041-042-053>061-291600-
SOUTHWEST WISCONSIN

CITY           SKY/WX    TMP DP  RH WIND       PRES   REMARKS
LA CROSSE      MOSUNNY   79  70  74 NE3       30.24R HX  82
SPARTA         MOSUNNY   72  67  84 CALM      30.26R
VIROQUA        MOSUNNY   71  69  95 SE3       30.27S
BOSCOBEL       CLOUDY    71  70  96 NE3       30.25R
PRAIRIE DU CHI CLOUDY    73  69  87 CALM      30.24R
PLATTEVILLE    CLOUDY    70  70 100 E5        30.25S
$$

WIZ056-057-062-063-064-067-068-291600-
SOUTH CENTRAL WISCONSIN

CITY           SKY/WX    TMP DP  RH WIND       PRES   REMARKS
REEDSBURG      NOT AVBL
BARABOO/DELLS  MOSUNNY   75  68  79 CALM      30.26R
LONE ROCK      CLOUDY    70  69  97 E3        30.25S FOG
MINERAL POINT  CLOUDY    72  72 100 SE5       30.26R FOG
MADISON        CLOUDY    75  67  76 SE6       30.25R
MIDDLETON      CLOUDY    76  68  78 E3        30.26R
WATERTOWN      SUNNY     74  69  82 SE3       30.25S
MONROE         CLOUDY    72  68  88 SE6       30.26R
JANESVILLE     PTSUNNY   79  70  73 E7        30.24R HX  81
$$

WIZ051-052-058>065-066-070>072-291600-
SOUTHEAST WISCONSIN

CITY           SKY/WX    TMP DP  RH WIND       PRES   REMARKS
MILWAUKEE      MOSUNNY   76  67  73 VRB6      30.27R
WAUKESHA       NOT AVBL
MILWAUKEE/TIMM SUNNY     75  63  64 E5        30.27S
RACINE         MOSUNNY   75  69  81 NE5       30.28R
BURLINGTON     SUNNY     73  66  80 E3        30.25S
KENOSHA        SUNNY     77  67  71 E8        30.26R
FOND DU LAC    SUNNY     76  68  76 S5        30.26S
SHEBOYGAN      MOSUNNY   73  66  78 SE3       30.27S
WEST BEND      MOSUNNY   72  64  78 CALM      30.26F
JUNEAU         SUNNY     74  67  79 CALM      30.27S
$$

LSZ147-162-291600-
LAKE SUPERIOR

STATION/POSITION TIME  TEMP    WIND        PRES    WAVE
                       AIR SEA DIR/SP/G            HT/PER
                 (UTC) (F)     (DEG/KT/KT) (MB)    (FT/S)
W MID LAKE BUOY  1350   68 67  240/ 12/ 16 1020.0R   1/ 4
DEVILS ISLAND    1400   67     240/  6/  7 1019.8R
PORT WING        1400   69     230/  3/  5 1020.3R
SAXON HARBOR     1400   69     190/  5/ 15 1019.3F
$$

LMZ867-665-643>646-291600-
LAKE MICHIGAN

STATION/POSITION TIME  TEMP    WIND        PRES    WAVE
                       AIR SEA DIR/SP/G            HT/PER
                 (UTC) (F)     (DEG/KT/KT) (MB)    (FT/S)
CHAMBERS ISLAND  1400   73     150/  1/  4 1024.7R
N MID LAKE BUOY  1350   69 71  160/ 12/ 12 1024.5R   1/ 3
NORTHPORT PIER   1400   71     140/  6/  7 1024.7R
KEWAUNEE LAKESHO 1400   69      80/  2/  3 1024.1R
SHEBOYGAN LAKESH 1400   63      20/  6/  7 1024.5R
PORT WASHINGTON  1440   71      40/  3/  4 1025.1S
ATWATER BUOY     1400   66     360/  4/  6   N/A
MILWAUKEE LAKESH 1410   66      30/  9/  9   N/A
S MID LAKE BUOY  1350   74 75   90/  6/  6 1023.7R   0
KENOSHA   LAKESH 1400   68      10/  5/  7 1024.0S
$$

TC  - TEMPERATURE IN CELSIUS
VSB - VISIBILITY IN STATUTE MILES
WCI - WIND CHILL INDEX
HX  - HEAT INDEX




USA.gov is the U.S. government's official web portal to all federal, state and local government web resources and services.